"Period start","avg(HW err(1)/warn(2) (#))","avg(Visibility (m))","avg(Weather code (#))","avg(Precip intensity (mm/h))","min(HW err(1)/warn(2) (#))","max(HW err(1)/warn(2) (#))","std(HW err(1)/warn(2) (#))","med(HW err(1)/warn(2) (#))","min(Visibility (m))","max(Visibility (m))","std(Visibility (m))","med(Visibility (m))","min(Weather code (#))","max(Weather code (#))","std(Weather code (#))","med(Weather code (#))","min(Precip intensity (mm/h))","max(Precip intensity (mm/h))","std(Precip intensity (mm/h))","med(Precip intensity (mm/h))"
2016-11-19 00:00:00,1,,,,1,1,0,1,,,,,,,,,,,,
2016-11-19 00:10:00,1,,,,1,1,0,1,,,,,,,,,,,,
2016-11-19 00:20:00,1,,,,1,1,0,1,,,,,,,,,,,,
2016-11-19 00:30:00,1,,,,1,1,0,1,,,,,,,,,,,,
2016-11-19 00:40:00,1,,,,1,1,0,1,,,,,,,,,,,,
2016-11-19 00:50:00,1,,,,1,1,0,1,,,,,,,,,,,,
2016-11-19 01:00:00,1,,,,1,1,0,1,,,,,,,,,,,,
2016-11-19 01:10:00,1,,,,1,1,0,1,,,,,,,,,,,,
2016-11-19 01:20:00,1,,,,1,1,0,1,,,,,,,,,,,,
2016-11-19 01:30:00,1,,,,1,1,0,1,,,,,,,,,,,,
2016-11-19 01:40:00,1,,,,1,1,0,1,,,,,,,,,,,,
2016-11-19 01:50:00,1,,,,1,1,0,1,,,,,,,,,,,,
2016-11-19 02:00:00,1,,,,1,1,0,1,,,,,,,,,,,,
2016-11-19 02:10:00,1,,,,1,1,0,1,,,,,,,,,,,,
2016-11-19 02:20:00,1,,,,1,1,0,1,,,,,,,,,,,,
2016-11-19 02:30:00,1,,,,1,1,0,1,,,,,,,,,,,,
2016-11-19 02:40:00,1,,,,1,1,0,1,,,,,,,,,,,,
2016-11-19 02:50:00,1,,,,1,1,0,1,,,,,,,,,,,,
2016-11-19 03:00:00,1,,,,1,1,0,1,,,,,,,,,,,,
2016-11-19 03:10:00,1,,,,1,1,0,1,,,,,,,,,,,,
2016-11-19 03:20:00,1,,,,1,1,0,1,,,,,,,,,,,,
2016-11-19 03:30:00,1,,,,1,1,0,1,,,,,,,,,,,,
2016-11-19 03:40:00,1,,,,1,1,0,1,,,,,,,,,,,,
2016-11-19 03:50:00,1,,,,1,1,0,1,,,,,,,,,,,,
2016-11-19 04:00:00,1,,,,1,1,0,1,,,,,,,,,,,,
2016-11-19 04:10:00,1,,,,1,1,0,1,,,,,,,,,,,,
2016-11-19 04:20:00,1,,,,1,1,0,1,,,,,,,,,,,,
2016-11-19 04:30:00,1,,,,1,1,0,1,,,,,,,,,,,,
2016-11-19 04:40:00,1,,,,1,1,0,1,,,,,,,,,,,,
2016-11-19 04:50:00,1,,,,1,1,0,1,,,,,,,,,,,,
2016-11-19 05:00:00,1,,,,1,1,0,1,,,,,,,,,,,,
2016-11-19 05:10:00,1,,,,1,1,0,1,,,,,,,,,,,,
2016-11-19 05:20:00,1,,,,1,1,0,1,,,,,,,,,,,,
2016-11-19 05:30:00,1,,,,1,1,0,1,,,,,,,,,,,,
2016-11-19 05:40:00,1,,,,1,1,0,1,,,,,,,,,,,,
2016-11-19 05:50:00,1,,,,1,1,0,1,,,,,,,,,,,,
2016-11-19 06:00:00,1,,,,1,1,0,1,,,,,,,,,,,,
2016-11-19 06:10:00,1,,,,1,1,0,1,,,,,,,,,,,,
2016-11-19 06:20:00,1,,,,1,1,0,1,,,,,,,,,,,,
2016-11-19 06:30:00,1,,,,1,1,0,1,,,,,,,,,,,,
2016-11-19 06:40:00,1,,,,1,1,0,1,,,,,,,,,,,,
2016-11-19 06:50:00,1,,,,1,1,0,1,,,,,,,,,,,,
2016-11-19 07:00:00,1,,,,1,1,0,1,,,,,,,,,,,,
2016-11-19 07:10:00,1,8254,71,0.14,1,2,0,1,0,13335,5078,9840,71,71,0,71,0.00,0.35,0.13,0.10
2016-11-19 07:20:00,2,13162,71,0.06,2,2,0,2,9969,17794,2428,12560,71,71,0,71,0.00,0.25,0.08,0.03
2016-11-19 07:30:00,2,11939,71,0.23,2,2,0,2,8921,16934,2588,11118,71,71,0,71,0.00,0.65,0.20,0.17
2016-11-19 07:40:00,2,11859,71,0.12,2,2,0,2,7468,15138,2166,12750,71,71,0,71,0.00,0.35,0.11,0.10
2016-11-19 07:50:00,2,12639,71,0.11,2,2,0,2,10054,16038,1916,12456,71,71,0,71,0.00,0.45,0.14,0.05
2016-11-19 08:00:00,2,14236,72,0.03,2,2,0,2,9834,19662,2968,14492,71,77,2,71,0.00,0.05,0.03,0.03
2016-11-19 08:10:00,2,16178,75,0.02,2,2,0,2,12984,17849,1450,16460,71,77,3,77,0.00,0.10,0.03,0.00
2016-11-19 08:20:00,2,17909,78,0.01,2,2,0,2,11693,21276,2507,17890,77,78,0,78,0.00,0.05,0.02,0.00
2016-11-19 08:30:00,2,12986,76,0.03,2,2,0,2,10383,17037,2304,12488,71,78,3,78,0.00,0.10,0.03,0.00
2016-11-19 08:40:00,2,14444,76,0.00,2,2,0,2,8852,20017,3202,14434,71,77,2,77,0.00,0.00,0.00,0.00
2016-11-19 08:50:00,2,18277,77,0.02,2,2,0,2,16003,21452,1736,18288,77,77,0,77,0.00,0.05,0.02,0.00
2016-11-19 09:00:00,2,20557,77,0.01,2,2,0,2,17603,22975,1851,20544,77,77,0,77,0.00,0.05,0.02,0.00
2016-11-19 09:10:00,2,19697,77,0.02,2,2,0,2,17130,24387,1907,19180,77,77,0,77,0.00,0.10,0.03,0.00
2016-11-19 09:20:00,2,16939,77,0.01,2,2,0,2,15060,20894,1613,16541,77,77,0,77,0.00,0.05,0.02,0.00
2016-11-19 09:30:00,2,17902,77,0.00,2,2,0,2,15306,22410,1877,17776,77,77,0,77,0.00,0.00,0.00,0.00
2016-11-19 09:40:00,2,17531,77,0.01,2,2,0,2,15868,19721,1227,17672,77,77,0,77,0.00,0.05,0.02,0.00
2016-11-19 09:50:00,2,21450,77,0.00,2,2,0,2,19172,25622,2114,20395,77,77,0,77,0.00,0.00,0.00,0.00
2016-11-19 10:00:00,2,23023,77,0.00,2,2,0,2,20860,25677,1283,23158,77,77,0,77,0.00,0.00,0.00,0.00
2016-11-19 10:10:00,2,21788,77,0.00,2,2,0,2,18124,25940,2288,21940,77,77,0,77,0.00,0.00,0.00,0.00
2016-11-19 10:20:00,2,21927,75,0.02,2,2,0,2,18207,29645,3317,21212,71,77,3,77,0.00,0.10,0.03,0.00
2016-11-19 10:30:00,2,21532,77,0.03,2,2,0,2,16146,29485,3868,21401,77,77,0,77,0.00,0.15,0.05,0.00
2016-11-19 10:40:00,2,16737,72,0.03,2,2,0,2,14239,20563,1714,16672,71,77,2,71,0.00,0.10,0.04,0.00
2016-11-19 10:50:00,2,21857,75,0.01,2,2,0,2,16984,29704,4387,20172,71,77,3,77,0.00,0.05,0.02,0.00
2016-11-19 11:00:00,2,18164,77,0.03,2,2,0,2,13120,21305,2299,18505,77,77,0,77,0.00,0.10,0.03,0.00
2016-11-19 11:10:00,2,16750,73,0.03,2,2,0,2,15063,18636,1210,16628,71,77,3,71,0.00,0.25,0.07,0.00
2016-11-19 11:20:00,2,23496,75,0.01,2,2,0,2,18328,27641,2981,22624,71,77,3,77,0.00,0.05,0.02,0.00
2016-11-19 11:30:00,2,24292,76,0.01,2,2,0,2,18644,34855,4430,23124,71,77,2,77,0.00,0.10,0.03,0.00
2016-11-19 11:40:00,2,18822,77,0.01,2,2,0,2,15935,21957,2073,19276,77,77,0,77,0.00,0.05,0.02,0.00
2016-11-19 11:50:00,2,18420,72,0.04,2,2,0,2,14462,25748,3041,17735,71,77,2,71,0.00,0.20,0.06,0.03
2016-11-19 12:00:00,2,18316,72,0.05,2,2,0,2,10052,25851,5117,17249,71,77,2,71,0.00,0.35,0.10,0.00
2016-11-19 12:10:00,2,15483,71,0.09,2,2,0,2,11036,20835,2387,15588,71,71,0,71,0.00,0.35,0.10,0.05
2016-11-19 12:20:00,2,18338,71,0.04,2,2,0,2,11821,26804,4169,16918,71,71,0,71,0.00,0.10,0.04,0.03
2016-11-19 12:30:00,2,14098,71,0.14,2,2,0,2,9204,19393,3278,13129,71,71,0,71,0.00,0.55,0.15,0.10
2016-11-19 12:40:00,2,10135,71,0.14,2,2,0,2,5771,16973,3425,9285,71,71,0,71,0.05,0.35,0.09,0.12
2016-11-19 12:50:00,2,8451,71,0.12,2,2,0,2,6410,9921,979,8342,71,71,0,71,0.05,0.25,0.06,0.10
2016-11-19 13:00:00,2,10685,71,0.18,2,2,0,2,9185,12277,930,10454,71,71,0,71,0.05,0.35,0.10,0.20
2016-11-19 13:10:00,2,21719,71,0.07,2,2,0,2,12681,32150,5455,22732,71,71,0,71,0.00,0.50,0.15,0.03
2016-11-19 13:20:00,2,17559,73,0.04,2,2,0,2,13039,22603,3508,17810,71,77,3,71,0.00,0.20,0.06,0.05
2016-11-19 13:30:00,2,19415,72,0.04,2,2,0,2,13472,26131,3633,19016,71,77,2,71,0.00,0.10,0.04,0.05
2016-11-19 13:40:00,2,18653,75,0.03,2,2,0,2,14451,23478,2558,19169,71,78,3,77,0.00,0.15,0.04,0.03
2016-11-19 13:50:00,2,31613,74,0.02,2,2,0,2,23742,41020,5533,31304,71,78,3,74,0.00,0.10,0.03,0.00
2016-11-19 14:00:00,2,46181,75,0.00,2,2,0,2,37950,50000,4123,47310,71,77,3,77,0.00,0.00,0.00,0.00
2016-11-19 14:10:00,2,48671,54,0.00,2,2,0,2,44917,50000,1759,50000,0,77,35,77,0.00,0.00,0.00,0.00
2016-11-19 14:20:00,2,49802,0,0.00,2,2,0,2,48015,50000,596,50000,0,0,0,0,0.00,0.00,0.00,0.00
2016-11-19 14:30:00,2,49181,0,0.00,2,2,0,2,45994,50000,1376,50000,0,0,0,0,0.00,0.00,0.00,0.00
2016-11-19 14:40:00,2,48938,7,0.00,2,2,0,2,39962,50000,2997,50000,0,71,21,0,0.00,0.00,0.00,0.00
2016-11-19 14:50:00,2,48733,38,0.00,2,2,0,2,40270,50000,2913,50000,0,77,38,36,0.00,0.00,0.00,0.00
2016-11-19 15:00:00,2,49898,0,0.00,2,2,0,2,48975,50000,308,50000,0,0,0,0,0.00,0.00,0.00,0.00
2016-11-19 15:10:00,2,49751,0,0.00,2,2,0,2,47511,50000,747,50000,0,0,0,0,0.00,0.00,0.00,0.00
2016-11-19 15:20:00,2,49172,0,0.00,2,2,0,2,41771,50000,2467,50000,0,0,0,0,0.00,0.00,0.00,0.00
2016-11-19 15:30:00,2,50000,0,0.00,2,2,0,2,50000,50000,0,50000,0,0,0,0,0.00,0.00,0.00,0.00
2016-11-19 15:40:00,2,46335,0,0.00,2,2,0,2,37971,50000,4230,47445,0,0,0,0,0.00,0.00,0.00,0.00
2016-11-19 15:50:00,2,42474,74,0.01,2,2,0,2,33265,48277,4049,42385,71,78,4,74,0.00,0.05,0.02,0.00
2016-11-19 16:00:00,2,45694,31,0.00,2,2,0,2,37589,50000,4641,46942,0,78,38,0,0.00,0.00,0.00,0.00
2016-11-19 16:10:00,2,46453,22,0.00,2,2,0,2,38814,50000,4252,48839,0,78,34,0,0.00,0.00,0.00,0.00
2016-11-19 16:20:00,2,47247,23,0.01,2,2,0,2,39448,50000,3355,48746,0,78,36,0,0.00,0.05,0.02,0.00
2016-11-19 16:30:00,2,46421,61,0.00,2,2,0,2,38599,50000,3887,47478,0,78,31,78,0.00,0.00,0.00,0.00
2016-11-19 16:40:00,2,44710,58,0.00,2,2,0,2,32562,50000,6551,48217,0,78,29,71,0.00,0.00,0.00,0.00
2016-11-19 16:50:00,2,47755,77,0.01,2,2,0,2,44093,50000,2140,47894,71,78,3,78,0.00,0.05,0.02,0.00
2016-11-19 17:00:00,2,44890,74,0.02,2,2,0,2,33235,50000,5266,45424,71,78,3,74,0.00,0.10,0.03,0.00
2016-11-19 17:10:00,2,42902,38,0.00,2,2,0,2,20216,50000,9624,46869,0,78,38,36,0.00,0.00,0.00,0.00
2016-11-19 17:20:00,2,41194,43,0.00,2,2,0,2,22978,50000,11459,50000,0,71,35,71,0.00,0.00,0.00,0.00
2016-11-19 17:30:00,2,49311,21,0.01,2,2,0,2,45365,50000,1420,50000,0,71,33,0,0.00,0.05,0.02,0.00
2016-11-19 17:40:00,2,49798,0,0.00,2,2,0,2,47977,50000,607,50000,0,0,0,0,0.00,0.00,0.00,0.00
2016-11-19 17:50:00,2,50000,0,0.00,2,2,0,2,50000,50000,0,50000,0,0,0,0,0.00,0.00,0.00,0.00
2016-11-19 18:00:00,2,50000,0,0.00,2,2,0,2,50000,50000,0,50000,0,0,0,0,0.00,0.00,0.00,0.00
2016-11-19 18:10:00,2,48604,0,0.00,2,2,0,2,42901,50000,2333,50000,0,0,0,0,0.00,0.00,0.00,0.00
2016-11-19 18:20:00,2,49252,0,0.00,2,2,0,2,46105,50000,1498,50000,0,0,0,0,0.00,0.00,0.00,0.00
2016-11-19 18:30:00,2,44205,36,0.00,2,2,0,2,32416,50000,7019,48328,0,71,36,36,0.00,0.00,0.00,0.00
2016-11-19 18:40:00,2,47330,22,0.00,2,2,0,2,37456,50000,4662,50000,0,78,34,0,0.00,0.00,0.00,0.00
2016-11-19 18:50:00,2,42967,78,0.01,2,2,0,2,32975,50000,6183,44129,77,78,0,78,0.00,0.05,0.02,0.00
2016-11-19 19:00:00,2,33740,76,0.04,2,2,0,2,20933,47084,8936,34532,71,78,3,78,0.00,0.15,0.05,0.03
2016-11-19 19:10:00,2,48691,22,0.00,2,2,0,2,39987,50000,3043,50000,0,77,33,0,0.00,0.00,0.00,0.00
2016-11-19 19:20:00,2,49973,0,0.00,2,2,0,2,49726,50000,82,50000,0,0,0,0,0.00,0.00,0.00,0.00
2016-11-19 19:30:00,2,44326,14,0.01,2,2,0,2,21848,50000,8865,47994,0,71,28,0,0.00,0.05,0.02,0.00
2016-11-19 19:40:00,2,31293,71,0.04,2,2,0,2,25775,39244,4275,30208,71,71,0,71,0.00,0.10,0.03,0.05
2016-11-19 19:50:00,2,31574,78,0.04,2,2,0,2,23194,37141,4475,31188,77,78,0,78,0.00,0.10,0.03,0.05
2016-11-19 20:00:00,2,35632,78,0.02,2,2,0,2,30566,46562,4679,34493,77,78,0,78,0.00,0.05,0.02,0.00
2016-11-19 20:10:00,2,48625,47,0.00,2,2,0,2,43469,50000,2122,50000,0,78,38,78,0.00,0.00,0.00,0.00
2016-11-19 20:20:00,2,42635,14,0.00,2,2,0,2,28564,48607,6010,44318,0,71,28,0,0.00,0.00,0.00,0.00
2016-11-19 20:30:00,2,16140,77,0.09,2,2,0,2,9070,22798,5786,17124,71,78,2,78,0.00,0.45,0.14,0.00
2016-11-19 20:40:00,2,10068,71,0.23,2,2,0,2,6742,13066,1893,10486,71,71,0,71,0.05,0.75,0.21,0.15
2016-11-19 20:50:00,2,8777,71,0.25,2,2,0,2,6802,10567,964,8907,71,71,0,71,0.05,0.75,0.19,0.20
2016-11-19 21:00:00,2,8122,72,0.17,2,2,0,2,5713,10417,1450,8179,71,77,2,71,0.05,0.35,0.09,0.17
2016-11-19 21:10:00,2,4306,73,0.17,2,2,0,2,3475,5197,508,4300,71,77,3,71,0.10,0.25,0.05,0.15
2016-11-19 21:20:00,2,4644,73,0.19,2,2,0,2,3445,6027,951,4660,71,77,3,71,0.05,0.40,0.10,0.15
2016-11-19 21:30:00,2,6456,78,0.05,2,2,0,2,5590,8151,790,6286,77,78,0,78,0.00,0.15,0.04,0.05
2016-11-19 21:40:00,2,13338,74,0.01,2,2,0,2,9608,16926,2291,12958,71,78,3,74,0.00,0.05,0.02,0.00
2016-11-19 21:50:00,2,17480,78,0.00,2,2,0,2,14854,20381,1815,17754,78,78,0,78,0.00,0.00,0.00,0.00
2016-11-19 22:00:00,2,15765,78,0.01,2,2,0,2,8609,19001,3403,16934,78,78,0,78,0.00,0.05,0.02,0.00
2016-11-19 22:10:00,2,5095,72,0.69,2,2,0,2,2948,8572,2032,4410,71,77,2,71,0.15,1.35,0.41,0.83
2016-11-19 22:20:00,2,3271,71,1.71,2,2,0,2,2918,3886,291,3314,71,71,0,71,1.15,2.35,0.41,1.70
2016-11-19 22:30:00,2,5270,71,1.41,2,2,0,2,3267,7093,1131,5342,71,71,0,71,0.40,2.50,0.63,1.25
2016-11-19 22:40:00,2,7878,71,0.95,2,2,0,2,4247,14320,2776,7332,71,71,0,71,0.35,2.35,0.62,0.75
2016-11-19 22:50:00,2,14206,71,0.34,2,2,0,2,7468,24405,4389,14122,71,71,0,71,0.05,1.15,0.31,0.23
2016-11-19 23:00:00,2,23580,72,0.06,2,2,0,2,17000,34295,5564,22868,71,77,2,71,0.00,0.25,0.07,0.05
2016-11-19 23:10:00,2,45820,76,0.00,2,2,0,2,36016,50000,4162,46571,71,78,3,78,0.00,0.00,0.00,0.00
2016-11-19 23:20:00,2,48002,78,0.00,2,2,0,2,39863,50000,2931,49020,78,78,0,78,0.00,0.00,0.00,0.00
2016-11-19 23:30:00,2,48211,78,0.00,2,2,0,2,45112,50000,1777,48826,78,78,0,78,0.00,0.00,0.00,0.00
2016-11-19 23:40:00,2,47771,0,0.00,2,2,0,2,42690,50000,2936,49950,0,0,0,0,0.00,0.00,0.00,0.00
2016-11-19 23:50:00,2,33578,61,0.02,2,2,0,2,11669,50000,11086,36026,0,78,31,78,0.00,0.10,0.03,0.00
